Change the Weather History Date:

Sunday, October 23, 2011

  Actual Average (KSAT) Record (KSAT)
Temperature  
Mean Temperature 72 °F 69 °F  
Max Temperature 86 °F 80 °F 93 °F (1988)
Min Temperature 59 °F 58 °F 36 °F (1996)
Degree Days  
Heating Degree Days 0 1  
Month to date heating degree days 12  
Since 1 July heating degree days 14  
Cooling Degree Days 8 6  
Month to date cooling degree days 181  
Year to date cooling degree days 3015  
Growing Degree Days 22 (Base 50)    
Moisture  
Dew Point 53 °F    
Average Humidity 59    
Maximum Humidity 88    
Minimum Humidity 27    
Precipitation  
Precipitation 0.00 in 0.14 in 4.62 in (1914)
Month to date precipitation 3.18  
Year to date precipitation 27.15  
Snow  
Snow 0.00 in - - ()
Month to date snowfall  
Since 1 July snowfall  
Since 1 September snowfall  
Snow Depth -    
Sea Level Pressure  
Sea Level Pressure 30.06 in    
Wind  
Wind Speed 5 mph (West)    
Max Wind Speed 12 mph    
Max Gust Speed 16 mph    
Visibility 10 miles    
Events      
T = Trace of Precipitation, MM = Missing Value Source: NWS Daily Summary

Daily Weather History Graph

Daily Weather History Graph

Search for Another Location

Airport or City:

Trip Planner

Search our weather history database for the weather conditions in past years. The results will help you decide how hot, cold, wet, or windy it might be!

Date:

Astronomy

Oct. 23, 2011 Rise Set
Actual Time 7:42 AM CDT 6:56 PM CDT
Civil Twilight 7:18 AM CDT 7:20 PM CDT
Nautical Twilight 6:50 AM CDT 7:48 PM CDT
Astronomical Twilight 6:22 AM CDT 8:16 PM CDT
Moon 4:06 AM CDT (10/23) 4:36 PM CDT (10/23)
Length of Visible Light 12h 02m
Length of Day
11h 13m
Waning Crescent, 14% of the Moon is Illuminated
Oct 23
Waning Crescent
Oct 26
New
Nov 2
First Quarter
Nov 10
Full
Nov 18
Last Quarter

Hourly Weather History & Observations

Time (CDT) Temp. Heat Index Dew Point Humidity Pressure Visibility Wind Dir Wind Speed Gust Speed Precip Events Conditions
12:15 AM 66.2 °F - 55.4 °F 68% 30.03 in 10.0 mi SSW 5.8 mph - N/A   Clear
12:35 AM 66.2 °F - 55.4 °F 68% 30.03 in 10.0 mi SSW 6.9 mph - N/A   Clear
12:55 AM 64.4 °F - 55.4 °F 73% 30.03 in 10.0 mi SSW 5.8 mph - N/A   Clear
1:15 AM 64.4 °F - 55.4 °F 73% 30.02 in 10.0 mi SSW 8.1 mph - N/A   Clear
1:35 AM 64.4 °F - 55.4 °F 73% 30.02 in 10.0 mi SSW 6.9 mph - N/A   Clear
1:55 AM 64.4 °F - 55.4 °F 73% 30.02 in 10.0 mi SSW 5.8 mph - N/A   Clear
2:35 AM 64.4 °F - 55.4 °F 73% 30.02 in 10.0 mi SSW 5.8 mph - N/A   Clear
2:55 AM 64.4 °F - 55.4 °F 73% 30.02 in 10.0 mi SSW 6.9 mph - N/A   Clear
3:15 AM 62.6 °F - 55.4 °F 77% 30.02 in 10.0 mi SSW 6.9 mph - N/A   Clear
3:35 AM 62.6 °F - 55.4 °F 77% 30.01 in 10.0 mi SSW 5.8 mph - N/A   Clear
3:55 AM 62.6 °F - 55.4 °F 77% 30.01 in 10.0 mi SW 4.6 mph - N/A   Clear
4:15 AM 62.6 °F - 55.4 °F 77% 30.00 in 10.0 mi SW 5.8 mph - N/A   Clear
4:35 AM 62.6 °F - 55.4 °F 77% 30.00 in 10.0 mi WSW 6.9 mph - N/A   Clear
4:55 AM 62.6 °F - 55.4 °F 77% 30.00 in 10.0 mi SW 8.1 mph - N/A   Clear
5:15 AM 62.6 °F - 55.4 °F 77% 30.00 in 10.0 mi SW 9.2 mph - N/A   Clear
5:35 AM 62.6 °F - 55.4 °F 77% 30.01 in 10.0 mi WSW 5.8 mph - N/A   Clear
5:55 AM 62.6 °F - 55.4 °F 77% 30.01 in 10.0 mi Calm Calm - N/A   Clear
6:15 AM 60.8 °F - 55.4 °F 82% 30.02 in 10.0 mi Calm Calm - N/A   Clear
6:35 AM 60.8 °F - 55.4 °F 82% 30.02 in 10.0 mi Calm Calm - N/A   Clear
6:55 AM 60.8 °F - 55.4 °F 82% 30.03 in 10.0 mi Calm Calm - N/A   Clear
7:15 AM 60.8 °F - 57.2 °F 88% 30.04 in 10.0 mi Calm Calm - N/A   Clear
7:35 AM 60.8 °F - 55.4 °F 82% 30.04 in 10.0 mi Calm Calm - N/A   Clear
7:55 AM 59.0 °F - 55.4 °F 88% 30.05 in 10.0 mi Calm Calm - N/A   Clear
8:15 AM 59.0 °F - 55.4 °F 88% 30.06 in 10.0 mi Calm Calm - N/A   Clear
8:35 AM 60.8 °F - 57.2 °F 88% 30.06 in 10.0 mi Calm Calm - N/A   Clear
8:55 AM 62.6 °F - 57.2 °F 82% 30.07 in 10.0 mi NW 4.6 mph - N/A   Clear
9:35 AM 66.2 °F - 59.0 °F 78% 30.08 in 10.0 mi WSW 4.6 mph - N/A   Clear
9:55 AM 68.0 °F - 59.0 °F 73% 30.09 in 10.0 mi WSW 9.2 mph - N/A   Clear
10:15 AM 69.8 °F - 59.0 °F 68% 30.09 in 10.0 mi SW 9.2 mph - N/A   Clear
10:35 AM 69.8 °F - 59.0 °F 68% 30.09 in 10.0 mi West 10.4 mph - N/A   Clear
10:55 AM 71.6 °F - 59.0 °F 64% 30.09 in 10.0 mi WSW 8.1 mph - N/A   Clear
11:35 AM 71.6 °F - 59.0 °F 64% 30.09 in 10.0 mi WSW 5.8 mph - N/A   Clear
11:55 AM 73.4 °F - 59.0 °F 61% 30.09 in 10.0 mi WSW 4.6 mph - N/A   Clear
12:15 PM 73.4 °F - 59.0 °F 61% 30.09 in 10.0 mi West 8.1 mph - N/A   Clear
12:35 PM 75.2 °F - 59.0 °F 57% 30.08 in 10.0 mi West 6.9 mph - N/A   Clear
12:55 PM 77.0 °F - 59.0 °F 54% 30.07 in 10.0 mi West 11.5 mph - N/A   Clear
1:15 PM 78.8 °F - 57.2 °F 47% 30.06 in 10.0 mi West 6.9 mph - N/A   Clear
1:35 PM 78.8 °F - 57.2 °F 47% 30.05 in 10.0 mi WSW 6.9 mph - N/A   Clear
1:55 PM 80.6 °F 80.8 °F 57.2 °F 45% 30.05 in 10.0 mi Calm Calm - N/A   Clear
2:15 PM 82.4 °F 81.4 °F 53.6 °F 37% 30.04 in 10.0 mi NNW 8.1 mph - N/A   Clear
2:35 PM 82.4 °F - 51.8 °F 35% 30.03 in 10.0 mi NNE 3.5 mph - N/A   Clear
2:55 PM 82.4 °F - 51.8 °F 35% 30.02 in 10.0 mi Calm Calm - N/A   Clear
3:15 PM 82.4 °F - 50.0 °F 32% 30.02 in 10.0 mi NNW 8.1 mph - N/A   Clear
3:35 PM 84.2 °F - 50.0 °F 30% 30.02 in 10.0 mi Calm Calm - N/A   Clear
3:55 PM 84.2 °F - 50.0 °F 30% 30.02 in 10.0 mi NE 5.8 mph - N/A   Clear
4:15 PM 86.0 °F - 48.2 °F 27% 30.02 in 10.0 mi NNW 6.9 mph - N/A   Clear
4:35 PM 86.0 °F - 48.2 °F 27% 30.02 in 10.0 mi North 4.6 mph - N/A   Clear
5:15 PM 84.2 °F - 46.4 °F 27% 30.02 in 10.0 mi NE 10.4 mph 16.1 mph N/A   Clear
5:35 PM 82.4 °F - 46.4 °F 28% 30.03 in 10.0 mi NNE 10.4 mph - N/A   Clear
5:55 PM 82.4 °F - 48.2 °F 30% 30.04 in 10.0 mi ENE 6.9 mph - N/A   Clear
6:15 PM 82.4 °F - 46.4 °F 28% 30.04 in 10.0 mi NNE 5.8 mph - N/A   Clear
6:35 PM 80.6 °F - 46.4 °F 30% 30.05 in 10.0 mi NE 6.9 mph - N/A   Clear
6:55 PM 77.0 °F - 46.4 °F 34% 30.05 in 10.0 mi NE 5.8 mph - N/A   Clear
7:15 PM 77.0 °F - 46.4 °F 34% 30.06 in 10.0 mi NNE 5.8 mph - N/A   Clear
7:35 PM 73.4 °F - 46.4 °F 38% 30.07 in 10.0 mi NNE 4.6 mph - N/A   Clear
7:55 PM 73.4 °F - 48.2 °F 41% 30.08 in 10.0 mi NNE 6.9 mph - N/A   Clear
8:15 PM 71.6 °F - 48.2 °F 43% 30.10 in 10.0 mi NE 5.8 mph - N/A   Clear
8:35 PM 71.6 °F - 50.0 °F 46% 30.11 in 10.0 mi NE 5.8 mph - N/A   Clear
8:55 PM 69.8 °F - 50.0 °F 49% 30.12 in 10.0 mi NE 4.6 mph - N/A   Clear
9:15 PM 69.8 °F - 50.0 °F 49% 30.13 in 10.0 mi Calm Calm - N/A   Clear
9:35 PM 68.0 °F - 50.0 °F 52% 30.14 in 10.0 mi Calm Calm - N/A   Clear
9:55 PM 66.2 °F - 50.0 °F 56% 30.14 in 10.0 mi Calm Calm - N/A   Clear
10:15 PM 68.0 °F - 50.0 °F 52% 30.15 in 10.0 mi Calm Calm - N/A   Clear
10:35 PM 62.6 °F - 50.0 °F 63% 30.16 in 10.0 mi Calm Calm - N/A   Clear
10:55 PM 64.4 °F - 51.8 °F 64% 30.16 in 10.0 mi Calm Calm - N/A   Clear
11:15 PM 62.6 °F - 51.8 °F 68% 30.16 in 10.0 mi Calm Calm - N/A   Clear
11:35 PM 60.8 °F - 51.8 °F 72% 30.17 in 10.0 mi Calm Calm - N/A   Clear
11:55 PM 62.6 °F - 51.8 °F 68% 30.17 in 10.0 mi Calm Calm - N/A   Clear